Location: Kerguer�zec
(48.4509°N, 4.7600°W)
Time: 02:23:59
(UTC+00:00)

ERBS - Pass Details

Date: 09 April 2020
Orbit: 409 x 427 km, 57.0° (Epoch: 04 June)

Event Time Altitude Azimuth Distance (km) Brightness Sun altitude
Rises 21:42:38 0° 300° (WNW) 2,399 7.3 -23.8°
Reaches altitude 10° 21:44:53 10° 289° (WNW) 1,529 5.9 -24.0°
Enters shadow 21:46:50 24° 261° (W) 935 4.3 -24.2°
